Theta_e
298 298 298 298 298 298 298 298 298 298 298 298 299 299 299 300 300 300 299 301 303 303 303 303 303 303 304 305 306 305 307 310 311 313 318 319 316 316 318 319 324 324 328 328 326 329 331 333 335 328 326 330 330 333
298 298 298 298 300 301 301 300 301 301 300 299 300 300 299 299 299 299 299 299 302 302 302 303 304 303 303 304 303 305 307 308 310 312 311 311 319 320 316 324 325 329 326 328 329 328 329 330 332 333 334 332 332 332
298 298 300 301 301 301 301 301 301 301 301 301 300 300 300 299 299 299 299 300 301 302 301 302 302 302 303 303 303 306 306 308 312 311 310 310 316 319 322 318 328 329 327 333 334 332 327 327 332 334 334 335 334 336
298 300 300 300 301 301 301 301 301 301 300 300 299 300 300 300 299 298 299 300 301 302 302 302 302 304 305 306 306 303 305 309 309 308 311 313 315 318 323 321 323 326 329 330 329 326 325 325 329 334 335 335 335 336
298 300 300 300 301 302 302 303 301 300 300 300 300 300 299 299 299 299 300 301 301 302 302 302 302 308 307 306 306 307 304 305 306 310 317 319 317 319 320 320 324 322 329 334 334 327 326 324 327 332 334 334 334 331
299 300 299 299 300 302 303 303 301 300 300 300 300 299 299 299 299 301 301 303 303 301 302 306 306 307 310 309 306 307 305 306 307 315 317 316 317 321 323 324 322 324 326 328 329 327 325 324 324 326 328 324 323 322
299 299 299 299 301 302 303 303 301 300 300 300 300 300 300 300 300 301 301 302 303 303 303 306 310 310 308 307 307 306 306 308 313 315 317 317 317 318 319 324 321 325 327 327 324 326 322 322 320 320 321 322 324 322
299 299 299 301 302 301 302 303 303 302 301 300 300 300 300 300 301 301 301 301 303 302 304 307 310 311 309 310 311 310 312 312 313 315 318 320 318 318 325 322 323 323 322 322 323 322 321 320 321 320 321 320 319 319
300 300 300 301 301 301 302 302 302 302 302 302 301 301 301 301 301 303 304 305 304 304 306 308 310 314 313 310 312 313 312 316 315 315 315 318 318 320 324 323 323 322 322 321 322 322 322 322 321 321 321 319 319 318
302 302 301 301 301 302 302 302 302 302 304 305 304 303 305 305 305 307 306 306 305 304 304 305 307 310 312 312 311 314 315 317 317 316 316 320 321 317 319 321 323 323 323 324 323 322 323 323 325 324 322 320 319 319
303 303 301 301 302 302 302 303 303 305 306 306 306 305 306 307 307 306 307 305 306 307 306 308 309 310 312 313 313 313 317 317 319 319 321 324 324 320 316 319 325 325 324 325 325 323 323 323 323 323 324 324 324 324
303 303 303 302 302 303 303 303 304 307 307 306 307 306 306 307 307 308 309 309 309 311 311 311 312 312 313 314 316 315 317 316 320 319 322 324 322 322 319 318 320 320 320 321 322 323 324 324 323 323 323 323 323 323
304 303 302 302 304 304 304 305 308 309 309 308 308 307 307 308 307 309 310 307 309 311 314 314 316 315 316 316 315 317 319 317 317 322 325 323 320 323 322 321 321 320 320 321 322 322 323 323 323 322 321 322 322 323
304 304 304 304 304 304 304 308 309 309 309 310 307 305 305 307 309 307 310 310 311 313 314 314 315 315 314 315 317 318 314 317 322 325 326 322 320 323 324 324 323 324 323 323 324 324 324 323 323 323 323 323 322 322
306 305 304 305 305 305 305 308 310 310 309 309 309 311 311 311 312 310 311 312 312 312 312 313 313 313 314 314 316 318 321 324 324 325 322 317 318 321 323 323 324 325 325 325 324 324 324 323 323 321 319 318 318 319
307 306 306 306 307 305 305 308 310 310 311 311 310 309 308 310 310 310 310 311 312 313 315 315 315 317 318 317 320 320 321 322 320 318 315 316 318 320 321 320 320 323 325 325 324 324 323 320 318 319 319 319 319 319
308 307 307 308 308 306 306 309 310 311 311 309 309 309 307 308 310 310 310 312 312 313 313 313 317 317 315 318 318 316 318 316 314 315 315 316 316 317 318 322 323 324 324 324 324 321 316 315 315 318 320 320 320 320
309 309 308 308 308 307 308 308 309 309 309 308 306 308 309 310 310 312 313 313 313 313 314 314 314 315 318 317 316 314 313 314 316 318 319 319 319 318 317 318 323 323 324 323 321 317 317 316 314 313 314 317 320 321
309 309 309 309 308 308 308 308 308 308 308 308 309 311 311 312 313 314 313 313 313 313 313 314 315 316 315 315 314 316 316 317 317 318 320 321 322 321 317 316 323 323 319 318 318 318 318 317 318 317 317 314 312 311
312 312 311 311 309 308 308 309 309 310 309 310 311 311 313 313 315 314 314 314 314 314 315 315 315 315 315 315 316 317 317 317 317 317 317 321 323 321 319 318 323 320 319 318 319 319 319 317 317 317 317 317 316 313
314 314 314 313 312 311 311 310 310 310 310 310 312 312 314 316 315 316 315 315 315 313 313 315 316 316 316 316 316 317 317 317 317 317 317 316 320 321 322 322 322 321 319 319 319 317 317 317 318 316 315 315 314 314
315 315 315 314 313 313 313 312 311 311 311 313 315 314 315 313 314 315 316 316 315 316 316 316 316 317 317 317 317 317 317 317 318 318 317 317 316 316 316 318 318 319 319 319 320 319 317 317 315 315 315 314 313 313
315 315 315 315 314 314 312 314 313 313 310 313 315 313 314 314 316 316 315 315 316 315 317 317 316 316 316 316 318 318 318 318 318 318 318 318 318 317 316 316 316 316 317 318 317 317 317 316 315 315 314 314 314 315
316 317 317 316 316 313 315 316 315 314 315 313 313 314 313 316 315 315 313 315 314 315 315 315 315 316 317 318 317 318 317 316 315 317 317 317 317 317 317 313 313 314 316 317 317 317 316 315 313 316 316 315 315 316
316 316 316 315 317 315 314 315 316 315 316 314 316 314 314 316 313 313 314 316 315 314 314 315 315 315 316 317 317 317 317 316 315 315 315 315 315 316 314 313 313 313 313 312 312 312 312 312 313 314 316 316 316 313
311 318 318 318 318 315 315 317 317 316 316 318 316 316 316 316 317 316 316 315 314 314 314 314 315 315 314 314 314 315 315 315 315 314 314 314 314 315 314 314 314 314 314 314 314 314 314 314 313 313 312 312 312 312
314 318 319 318 318 319 316 316 315 314 315 316 313 313 313 316 317 316 315 315 315 314 314 315 315 314 313 313 313 313 313 314 314 314 313 314 313 313 313 312 312 311 313 313 313 313 313 312 312 313 313 313 313 313
319 319 318 319 319 318 317 316 315 316 315 317 314 315 317 316 315 316 315 314 314 314 314 313 313 312 311 311 311 310 310 309 310 310 311 311 311 310 309 308 308 308 308 308 308 309 309 309 309 309 310 310 311 312
320 320 319 317 318 317 316 317 317 316 315 315 313 313 314 314 313 313 313 312 312 312 311 311 309 308 307 305 306 307 307 307 307 308 307 307 307 307 306 305 305 304 304 304 304 305 305 306 307 309 310 311 312 313
320 319 319 316 314 315 318 318 317 315 314 314 314 313 313 313 313 312 312 310 309 308 308 307 307 306 305 304 305 306 306 306 305 305 304 303 302 302 301 301 301 301 301 302 304 305 307 307 308 308 309 309 309 308
318 318 319 318 317 316 316 315 316 316 314 313 313 312 310 309 309 308 307 307 307 307 307 306 305 304 304 303 303 303 304 303 303 302 301 300 299 299 300 300 300 300 299 300 301 301 302 302 302 303 303 303 303 303
318 318 318 315 318 317 316 316 317 316 313 312 313 312 314 314 311 310 305 305 307 306 305 305 303 302 301 301 301 300 300 299 298 298 297 297 297 297 297 297 297 296 296 295 295 295 296 296 296 297 298 298 299 299
320 317 318 316 315 317 317 315 316 316 316 316 314 311 310 310 312 312 306 305 304 304 303 302 300 299 298 298 298 297 297 296 296 296 296 296 296 296 296 296 295 295 294 293 293 292 292 292 293 293 293 295 296 297
Wind_Speed
23 24 24 24 24 25 25 24 24 23 22 21 20 18 17 16 15 15 16 14 18 12 19 23 24 16 14 13 6 10 12 2 4 2 2 3 3 7 4 5 9 8 7 5 3 4 7 2 0 9 3 10 18 25
22 24 26 26 27 27 26 25 24 23 25 24 23 21 21 17 17 14 18 16 13 17 18 22 21 21 24 25 23 12 8 6 5 2 2 2 4 3 2 9 1 5 7 8 8 7 2 3 5 11 9 7 2 21
25 25 25 28 27 26 27 26 24 19 20 21 20 24 17 15 15 14 17 13 15 17 28 25 26 27 27 35 36 15 12 9 3 4 1 3 5 2 3 5 2 1 1 5 5 2 3 5 11 13 11 17 22 29
24 24 25 27 30 28 28 24 20 16 19 15 13 6 10 11 11 13 17 15 15 8 6 15 17 20 21 17 26 40 43 14 6 19 3 2 3 3 3 4 3 3 4 7 4 4 12 3 14 34 34 31 36 40
23 24 24 25 28 27 26 23 15 12 13 11 10 2 5 8 10 12 16 18 16 13 5 20 41 11 12 20 25 24 35 32 19 8 3 3 6 4 3 1 3 1 5 4 5 13 6 8 22 35 47 51 48 40
23 23 25 25 25 26 25 20 16 11 10 8 7 4 4 6 7 7 5 6 15 23 6 4 10 15 11 10 24 20 29 19 15 6 3 6 12 3 3 3 3 6 9 6 5 16 27 31 32 37 51 44 44 37
23 23 24 24 23 22 24 22 17 12 8 9 7 6 5 7 8 7 3 5 7 7 5 5 3 6 7 22 15 19 22 12 10 5 7 6 7 5 3 3 6 4 6 19 33 47 28 29 26 32 43 40 35 30
22 22 22 21 20 22 24 21 18 14 10 8 8 6 6 8 10 13 10 14 15 8 5 3 3 2 8 6 7 13 6 10 11 6 5 3 6 5 3 1 3 15 26 29 29 33 44 36 32 30 27 26 26 24
23 22 21 20 20 22 21 22 23 22 17 9 7 7 8 5 4 2 3 8 11 8 4 3 2 1 1 8 12 11 10 4 1 1 2 4 3 2 2 2 10 6 19 32 43 39 34 31 27 23 19 17 17 17
23 22 21 20 19 19 21 23 23 23 16 7 4 1 3 2 7 6 3 4 7 6 7 3 6 3 3 4 7 7 7 4 2 1 5 2 1 4 6 5 26 33 33 33 32 27 26 21 18 16 13 13 11 12
23 22 21 20 20 22 24 24 24 22 15 8 3 4 5 6 4 4 4 4 4 3 6 6 7 3 4 1 2 3 3 3 3 2 2 2 2 5 8 11 20 18 14 15 20 19 18 21 22 21 17 16 13 8
23 23 22 21 23 25 26 23 21 21 16 7 8 11 8 4 5 3 2 3 3 3 4 2 5 6 7 4 4 4 4 2 4 6 3 3 2 15 15 22 24 24 24 24 22 22 20 18 16 14 13 10 6 3
24 25 23 21 25 26 25 22 20 18 13 3 2 2 5 1 3 2 2 2 3 4 4 3 4 2 4 1 2 3 1 1 13 3 3 3 11 15 15 20 22 20 19 21 21 18 14 13 11 7 5 3 2 0
25 24 22 21 24 25 21 20 18 15 5 4 5 5 3 3 2 4 3 2 6 7 17 11 6 3 1 3 3 2 1 3 3 3 4 3 16 17 19 20 20 18 16 16 14 12 11 8 6 5 3 3 4 5
26 23 18 22 23 21 17 18 16 13 5 4 4 6 4 10 13 20 18 9 10 12 12 8 6 3 3 3 2 3 5 5 5 3 2 8 13 15 17 16 16 14 12 12 11 9 7 4 4 5 6 7 6 5
24 21 20 23 22 19 16 15 9 9 4 4 5 6 18 9 14 22 22 10 21 18 4 2 3 3 5 3 7 6 3 5 3 3 7 10 12 14 15 14 10 8 6 7 6 4 3 3 3 4 4 3 2 1
20 19 21 23 22 13 13 10 6 6 6 6 5 10 18 8 11 19 20 23 24 7 2 3 6 5 3 4 5 5 4 3 9 10 8 6 4 2 3 6 8 9 8 7 6 6 10 10 10 7 5 6 6 5
18 17 18 22 22 10 10 10 5 6 6 6 6 20 23 13 16 17 20 23 16 10 6 3 3 7 4 4 2 3 5 11 7 7 7 6 5 6 5 4 4 7 7 6 6 13 10 11 13 15 15 12 9 6
19 18 18 19 19 9 7 8 7 5 5 10 16 21 16 17 23 20 17 15 16 19 6 6 5 3 2 3 3 11 13 12 8 10 12 7 3 3 7 13 10 8 6 10 13 10 7 6 7 8 9 10 11 11
14 15 15 16 14 4 4 6 6 5 7 9 14 23 13 17 22 25 23 26 20 13 9 4 3 4 4 11 10 11 20 19 18 22 19 16 12 8 8 10 12 13 13 11 9 6 5 4 3 4 5 6 6 7
12 13 14 14 9 10 6 5 5 5 7 8 19 15 11 17 23 26 24 18 13 6 4 9 18 17 18 16 18 23 18 20 20 18 16 17 17 18 15 14 11 10 8 6 4 2 3 3 3 5 6 5 4 2
13 11 10 10 8 5 5 10 4 7 6 7 12 11 6 9 11 15 12 10 6 7 6 6 5 3 7 12 15 15 11 9 8 9 12 16 19 18 15 12 9 8 6 3 3 3 2 4 3 4 4 4 4 2
10 8 6 7 5 6 3 8 5 7 5 10 10 7 7 11 16 16 6 9 8 14 15 15 14 12 12 9 6 4 15 11 9 8 8 10 5 9 9 7 8 6 3 2 3 4 4 3 3 5 5 5 3 4
7 5 5 5 8 4 4 5 4 5 4 4 3 4 5 8 13 11 4 14 23 26 28 27 23 23 23 22 17 13 15 20 18 14 16 12 14 8 10 13 15 10 5 4 6 6 5 6 8 6 5 7 7 8
5 5 5 5 5 4 4 5 3 3 2 2 3 3 4 7 4 5 4 16 19 18 21 24 23 26 25 20 17 14 13 12 15 18 17 12 10 12 12 13 12 11 10 9 9 6 5 7 7 4 7 9 9 7
4 4 4 5 4 1 1 2 1 2 1 1 2 1 3 3 4 3 5 13 14 18 18 18 20 20 21 21 18 14 15 11 6 11 13 13 13 9 10 7 7 10 12 12 10 8 9 10 10 8 7 5 7 9
4 5 7 10 8 6 4 3 1 2 3 4 3 1 2 3 2 3 8 17 19 18 19 18 16 15 16 16 16 15 13 12 11 11 11 10 12 12 11 11 13 12 12 13 14 14 13 13 14 14 14 14 14 15
3 4 5 17 7 8 4 5 5 5 4 8 3 3 2 2 2 3 6 12 13 13 14 14 14 15 16 17 17 17 16 16 13 11 8 8 7 9 10 12 13 15 16 17 18 18 19 20 20 20 19 19 18 16
4 9 10 6 5 6 5 4 6 8 11 5 4 3 4 8 12 14 15 15 15 14 16 17 18 18 19 19 18 17 16 16 16 15 15 15 17 17 19 20 21 21 21 19 18 19 18 18 17 16 14 12 10 10
5 11 4 4 3 4 5 4 4 11 16 12 9 19 30 25 19 18 19 18 16 19 19 20 22 24 24 22 19 16 14 13 12 12 13 15 18 20 22 22 22 21 20 18 17 16 14 13 12 13 12 11 11 9
6 5 2 3 2 4 6 6 7 9 16 19 18 22 18 19 17 14 14 12 14 18 21 24 25 26 26 23 20 17 12 12 12 13 15 18 18 16 15 16 18 19 18 17 15 15 14 13 12 12 14 14 14 14
6 3 4 1 2 3 4 5 6 10 10 18 14 8 5 1 2 5 10 12 17 20 22 24 25 22 17 14 14 12 11 14 17 19 19 16 13 13 14 16 16 18 19 19 18 17 16 15 15 14 13 13 13 14
5 4 2 1 1 2 5 4 3 4 3 2 4 7 7 3 2 1 4 10 16 19 21 24 23 17 17 17 16 15 15 16 17 16 15 12 10 11 14 17 19 21 22 22 18 15 14 14 14 13 12 11 11 11
Wind_Direction
330 334 333 331 328 323 319 314 307 303 300 294 287 286 275 263 260 265 268 264 254 255 264 261 249 255 262 256 260 319 331 251 311 64 115 296 262 215 175 198 177 151 141 183 133 151 252 44 326 163 234 304 206 188
335 332 331 331 329 325 322 313 312 308 298 287 279 277 266 262 253 258 264 268 265 262 265 268 259 259 258 254 247 242 257 333 273 46 26 332 297 304 173 223 349 182 182 180 178 205 186 216 236 292 290 265 218 164
335 335 336 333 329 324 321 315 312 305 309 305 294 274 246 251 244 249 264 262 266 272 290 268 264 292 279 253 243 234 261 226 233 358 298 244 265 277 221 239 153 249 134 121 131 76 335 123 120 97 97 118 120 131
338 337 338 340 339 331 328 332 314 311 322 323 320 252 231 238 247 247 255 260 254 265 271 282 285 277 282 255 236 229 235 252 300 335 257 235 266 244 265 261 258 214 149 144 59 83 81 47 120 114 105 117 118 124
337 337 339 339 342 351 354 344 333 328 336 338 354 153 220 251 260 253 260 259 254 242 285 293 298 327 302 236 218 229 225 234 263 288 232 243 269 304 246 276 258 244 176 141 195 185 114 148 130 130 125 122 120 119
337 338 340 343 343 349 355 348 342 321 332 338 341 324 283 256 251 269 285 245 248 231 270 286 293 304 323 225 194 199 203 211 212 242 243 249 255 284 292 263 265 286 255 222 142 134 128 129 124 125 124 123 116 115
338 339 341 344 348 347 352 358 3 356 327 329 319 300 282 267 250 237 261 321 175 166 258 287 270 303 64 140 146 161 193 202 217 249 223 241 264 230 242 250 326 23 145 134 133 131 102 117 108 120 119 118 121 135
341 344 346 348 350 342 348 352 3 10 358 338 327 310 278 265 273 277 289 251 230 267 250 265 254 278 184 145 116 163 182 217 200 228 250 233 283 229 254 2 26 112 120 125 130 121 118 115 113 107 109 118 122 116
348 348 345 345 346 350 355 351 348 349 344 328 307 303 285 259 262 219 213 171 214 241 284 278 290 243 208 148 123 180 194 220 146 204 242 322 284 253 304 119 128 121 117 118 118 117 120 114 113 113 110 105 97 106
350 349 347 347 348 350 348 343 337 349 353 6 359 268 250 230 291 309 176 194 207 217 231 238 233 268 310 179 170 123 226 185 142 240 292 258 279 289 53 132 122 113 117 119 113 112 120 115 117 112 112 116 123 140
350 350 349 349 348 344 339 338 334 336 345 341 293 247 300 277 235 214 219 199 197 234 226 241 238 279 304 67 3 100 219 178 119 241 304 339 44 349 52 125 133 122 116 114 111 116 118 119 119 116 115 110 115 117
344 343 340 336 340 341 340 340 334 334 327 293 268 285 280 242 227 229 206 213 220 266 249 239 228 225 282 189 170 219 217 150 116 171 4 86 314 7 92 124 132 127 119 116 115 117 117 117 116 117 115 115 120 128
342 340 336 334 338 340 342 343 339 335 332 313 265 329 327 343 314 273 240 197 256 232 247 274 313 144 277 324 223 236 55 48 129 138 121 5 350 58 94 110 115 113 114 118 119 119 121 117 111 93 85 97 115 145
335 337 336 334 340 343 343 345 345 348 349 13 18 353 37 347 302 273 281 253 272 277 306 326 260 209 113 64 254 313 227 129 78 62 75 37 20 56 84 99 110 106 108 112 116 119 112 103 87 61 33 326 304 301
332 333 333 341 345 344 344 346 352 6 9 41 20 12 354 318 297 320 328 325 333 323 318 287 269 228 142 166 262 7 46 56 34 52 65 33 49 55 71 82 88 94 111 118 115 106 85 44 356 333 320 314 323 320
335 338 342 342 347 346 348 357 5 11 21 38 50 354 329 316 335 346 345 353 347 343 323 320 343 353 20 35 24 21 43 42 30 8 5 9 28 43 49 66 77 93 114 121 112 94 64 20 25 20 21 28 34 349
339 340 339 340 348 352 357 15 27 26 27 22 355 331 343 306 309 327 331 339 354 357 17 358 34 360 327 46 26 11 21 342 329 340 355 330 325 341 52 71 107 117 132 137 128 103 105 82 68 67 66 61 67 74
337 340 340 341 346 4 20 27 42 46 34 358 342 333 342 334 331 350 355 3 11 11 17 65 58 31 36 36 22 333 306 327 346 354 354 339 297 260 218 181 140 138 145 144 125 131 107 92 76 66 62 59 57 67
350 354 355 354 351 5 19 32 29 36 351 333 334 346 342 345 6 16 24 27 33 37 42 39 48 30 30 30 325 342 16 22 18 48 45 32 338 222 191 178 170 151 136 125 131 128 117 95 70 57 50 48 48 48
13 12 7 4 11 38 56 33 22 8 358 327 341 344 342 355 16 37 47 57 60 56 42 48 31 6 351 14 61 90 47 55 62 58 50 53 64 100 132 166 161 143 132 127 127 118 98 79 47 14 3 7 15 27
8 8 11 16 28 50 71 26 25 7 329 333 349 352 354 25 24 32 38 42 51 45 72 45 40 50 63 68 57 44 48 55 46 41 47 62 69 75 93 113 124 129 133 127 133 106 38 352 324 312 322 338 355 349
352 360 10 14 25 53 59 20 3 348 354 331 4 10 358 359 354 7 6 35 42 31 21 14 33 70 72 85 91 83 65 50 45 64 78 85 85 76 74 87 93 90 82 52 344 313 279 343 342 343 284 301 313 341
358 5 10 8 19 33 34 9 19 12 27 351 358 5 353 355 1 18 37 24 25 11 27 36 45 49 47 52 57 36 61 50 41 46 65 55 89 139 141 137 134 148 171 156 335 4 350 308 299 307 299 255 287 307
10 13 10 22 23 18 6 19 15 7 7 13 18 5 346 346 2 23 15 34 48 64 68 65 67 61 55 63 81 67 59 48 44 73 58 34 23 85 78 69 53 52 28 333 329 324 327 334 323 289 263 248 257 285
16 15 9 357 8 6 11 352 6 24 19 351 14 9 352 26 26 13 352 356 28 48 61 71 65 62 61 61 55 45 38 37 38 47 47 52 69 71 61 76 53 52 48 39 28 13 8 350 339 307 263 261 268 291
57 14 8 348 320 359 342 335 272 259 196 244 253 43 26 68 34 5 320 358 42 43 54 59 63 65 60 59 56 47 45 42 62 42 35 22 40 80 87 70 63 50 34 20 15 13 3 357 346 333 335 322 289 299
28 351 354 349 316 313 297 268 270 2 18 14 357 32 88 72 41 348 41 83 82 79 72 57 43 48 48 41 37 39 39 37 37 50 59 56 51 47 46 42 32 20 358 335 331 335 332 331 327 316 310 305 306 305
333 330 350 333 345 5 352 23 23 12 345 343 324 40 85 117 187 42 77 95 90 77 69 60 45 35 29 26 21 14 10 11 8 356 343 13 16 17 19 17 2 348 343 337 329 321 318 316 313 311 309 308 306 303
318 339 340 357 7 39 40 38 26 7 351 338 333 33 51 51 51 83 92 82 62 49 47 41 33 23 19 14 10 6 1 1 2 5 4 4 359 354 351 345 340 337 333 330 329 327 327 328 329 325 317 311 304 289
336 345 358 19 43 25 21 37 63 75 60 72 84 96 85 79 73 69 69 62 42 30 29 25 21 15 13 9 1 354 356 359 4 7 3 356 350 343 340 340 344 348 349 345 336 326 317 314 310 308 308 310 306 314
322 339 355 27 42 26 26 51 93 109 95 92 82 82 92 85 74 67 64 50 38 31 25 21 15 10 3 355 352 349 345 344 345 342 339 339 339 337 337 340 340 338 339 338 334 331 330 327 324 321 319 319 317 315
320 342 346 16 38 86 86 71 81 108 97 105 100 36 41 43 48 6 28 17 10 15 15 9 6 3 353 341 341 350 343 340 336 333 337 342 340 337 338 345 352 353 351 348 346 342 339 338 335 333 330 326 323 321
302 314 311 289 227 213 175 157 129 120 116 124 131 132 128 178 247 293 330 353 5 6 6 4 3 350 344 342 336 331 330 334 331 332 344 355 354 350 347 346 347 349 350 350 350 349 347 343 338 332 327 326 323 317